Other Public Products
Issued by NWS Grand Forks, ND

Home | Current Version | Previous Version | Graphics & Text | Print | Product List | Glossary On
Versions: 1 2 3 4 5 6 7 8 9 10 11 12 13 14 15 16 17 18 19 20 21 22 23 24 25 26 27 28 29 30 31 32 33 34 35 36 37 38 39 40 41 42 43 44 45 46 47 48 49 50
000
FPUS83 KFGF 291010
OPUFGF
PRAIRIE TO PINES WEATHER ROUNDUP
NATIONAL WEATHER SERVICE EASTERN NORTH DAKOTA/GRAND FORKS ND
500 AM CDT MON AUG 29 2016

 **SATELLITE DATA USED TO AUGMENT SKY COVER AT AUTOMATED STATIONS**
 *****  WEATHER ACROSS EASTERN NORTH DAKOTA  *****

CITY           SKY/WX    TMP DP  RH WIND       PRES   REMARKS
GRAND FORKS    CLOUDY    65  62  90 W7        30.03R
GRAND FORKS AF MOCLDY    65  63  94 NW6       30.04R
GRAND CITY NWS   N/A     66 N/A N/A N7          N/A
BUXTON           N/A     66  65  98 CALM        N/A
DEVILS LAKE    CLEAR     63  60  90 NW10      30.10R
FARGO          CLEAR     73  70  90 SE8       30.01R
WAHPETON ARPT  SUNNY     72  68  88 E7        30.03R
$$

 *****  WEATHER ACROSS CENTRAL AND WESTERN NORTH DAKOTA  *****

CITY           SKY/WX    TMP DP  RH WIND       PRES   REMARKS
JAMESTOWN      MOCLDY    65  65 100 N12       30.05R FOG
BISMARCK       CLOUDY    67  52  58 N7        30.13R
MINOT          CLEAR     57  50  77 NW10      30.18R
MINOT AFB      CLEAR     56  50  78 NW13      30.17R
GARRISON         N/A     61  53  75 N9        30.17R
WILLISTON      PTCLDY    55  45  68 N13       30.24R
DICKINSON      CLOUDY    63  50  62 N10       30.18R
HETTINGER      CLOUDY    66  52  60 NE15      30.18R
$$

 *****  OTHER OBSERVATIONS NORTHEAST NORTH DAKOTA  *****

CITY           SKY/WX    TMP DP  RH WIND       PRES   REMARKS
WALHALLA       NOT AVBL
LANGDON        FAIR      59  59 100 NW12      30.10R
CAVALIER       FAIR      66  61  82 NW12      30.04R
GRAFTON        CLOUDY    68  63  83 NW12      30.05R
CANDO          NOT AVBL
FORT TOTTEN      N/A     65  61  87 N5        29.95S
ROLLA          FAIR      55  52  88 N15G22    30.15R
RUGBY          FAIR      54  54 100 W8        30.15R
 ***** THE ABOVE OBSERVATIONS ARE NON NWS ARE NOT QUALITY
        CONTROLLED AND MAY MIS-REPORT RAIN FOR SNOW...
$$

 *****  OTHER OBSERVATIONS SOUTHEAST NORTH DAKOTA *****

CITY           SKY/WX    TMP DP  RH WIND       PRES   REMARKS
COOPERSTOWN    NOT AVBL
VALLEY CITY    FAIR      64  64 100 NW12      30.06R
OAKES            N/A    N/A N/A N/A MISG        N/A
GWINNER        FAIR      70  68  94 SW10      30.03S
SHEYENNE NWR     N/A     68  66  94 SW3       29.95S
BUFFALO          N/A     67  65  91 SW5         N/A
WYNDMERE       NOT AVBL
 ***** THE ABOVE OBSERVATIONS ARE NON NWS ARE NOT QUALITY
       CONTROLLED AND MAY MIS-REPORT RAIN FOR SNOW...
$$

  *****  WEATHER ACROSS NORTHERN MINNESOTA  *****

CITY           SKY/WX    TMP DP  RH WIND       PRES   REMARKS
FLAG ISLAND    CLOUDY    66  63  88 CALM      30.07S
WARROAD        NOT AVBL
ROSEAU         CLOUDY    66  61  82 E7        30.06F
HALLOCK        CLOUDY    66  64  94 CALM      30.04R
THF RVR FALLS  CLOUDY    65  63  93 SW7       30.04R
HALSTAD          N/A     68  66  93 SE8         N/A
FOSSTON        CLOUDY    64  63  94 SE6       30.06R
BAUDETTE       CLOUDY    65  62  90 S7        30.05R
WASKISH        CLOUDY    63  63 100 S5        30.08R
CROOKSTON      CLOUDY    66  64  94 SE9       30.01S
$$
  *****  WEATHER ACROSS CENTRAL AND WEST MINNESOTA  *****

CITY           SKY/WX    TMP DP  RH WIND       PRES   REMARKS
BEMIDJI        CLOUDY    63  62  96 S13       30.10S
PARK RAPIDS    LGT RAIN  67  62  84 E15       30.14R
WADENA         CLOUDY    63  63 100 SE5       30.11F
DETROIT LAKES  CLOUDY    68  64  88 E8        30.10R
MOORHEAD       PTCLDY    70  66  88 SE7       30.03R
FERGUS FALLS   PTCLDY    70  66  88 SE9       30.07R
ELBOW LAKE     CLOUDY    72  69  89 SE14G20   30.07R THUNDER
MORRIS MN      PTCLDY    72  70  94 S10       30.04F
STAPLES        CLOUDY    63  63 100 S5        30.12F
WHEATON        CLEAR     73  72  94 N8        30.05R
$$
  *****  WEATHER ELSEWHERE ACROSS MINNESOTA  *****

CITY           SKY/WX    TMP DP  RH WIND       PRES   REMARKS
DULUTH         TSTM      64  62  93 N7        30.19F
INTRNTL FALLS  CLOUDY    63  61  93 SE5       30.09R
ELY            TSTM      61  61 100 S8        30.15S
CLOQUET        RAIN      63  61  94 CALM      30.22R
BRAINERD       RAIN      63  62  97 VRB3      30.16R
HIBBING        LGT RAIN  60  60 100 SE6       30.19R
ALEXANDRIA     TSTM      67  62  84 NE15      30.15R
SAINT CLOUD    MOCLDY    70  70 100 NE5       30.16R
MINNEAPOLIS    PTCLDY    70  68  93 S7        30.14S
$$

  *****  WEATHER ACROSS SOUTH DAKOTA  *****

CITY           SKY/WX    TMP DP  RH WIND       PRES   REMARKS
SIOUX FALLS    PTCLDY    69  68  96 S6        30.13S
BROOKINGS        N/A    N/A N/A N/A MISG        N/A
WATERTOWN      CLEAR     70  67  90 S9        30.09R
HURON          CLEAR     70  68  93 S10       30.05S
SISSETON         N/A     77  69  76 W18       29.99R
ABERDEEN       CLEAR     69  67  93 NW6       30.06R
MITCHELL       CLEAR     69  67  93 S8        30.09R
PIERRE         CLEAR     68  58  70 S5        30.03R
MOBRIDGE       CLEAR     63  57  81 NW5       30.05R
RAPID CITY     CLEAR     65  46  50 N17       30.12R
$$

  *****  SOME WEATHER IN NEARBY STATES *****

CITY           SKY/WX    TMP DP  RH WIND       PRES   REMARKS
GLASGOW MT     CLOUDY    55  44  66 S6        30.25R
GREAT FALLS MT CLEAR     47  42  83 W5        30.23F
CHEYENNE WY    CLOUDY    57  43  59 W7        30.29R
SCOTTSBLUFF NE CLEAR     56  52  86 E6        30.18R
OMAHA NE       CLOUDY    71  66  84 SE5       30.14S
DES MOINES IA  CLOUDY    73  70  90 E5        30.15R
DAVENPORT IA   CLEAR     68  67  96 E5        30.19S FOG
CHICAGO IL     PTCLDY    71  68  90 NE7       30.21S
EAU CLAIRE WI  PTCLDY    66  65  96 SE3       30.19S
LA CROSSE WI   CLEAR     67  67 100 SE6       30.19R
$$

  *****  SOME NATIONAL WEATHER *****

CITY           SKY/WX    TMP DP  RH WIND       PRES   REMARKS
LA GUARDIA NY  MOCLDY    77  66  68 SW6       30.10S
RALEIGH NC     CLOUDY    69  68  96 CALM      30.13S
ATLANTA GA     PTCLDY    75  68  78 E8        30.12S
NEW ORLEANS LA CLOUDY    82  76  81 NE6       29.94S
OKLAHOMA CITY  PTCLDY    71  67  87 CALM      30.09R
ALBUQUERQUE NM CLOUDY    64  43  46 N7        30.24S
SALT LAKE CITY FAIR      66  39  37 CALM      30.18R
LOS ANGELES CA FAIR      68  61  78 CALM      29.97S
BOISE ID       FAIR      70  40  33 SE9       30.06S
SEATTLE WA     FAIR      55  52  89 CALM      30.07S
$$

*** WEATHER ACROSS MANITOBA...SASKATCHEWAN AND ONTARIO ***
                ***ONTARIO***

CITY           SKY/WX    TMP DP  RH WIND       PRES   REMARKS
GERALDTON      MOCLDY    54  52  94 E2        30.21S
THUNDER BAY    LGT RAIN  63  63 100 E7        30.16F
SIOUX LOOKOUT  CLOUDY    59  57  94 CALM      30.09R
TORONTO        CLEAR     64  57  77 NW8       30.22R
BIG TROUT LK   PTCLDY    61  55  82 S10G17    30.03S
PICKLE LAKE    NOT AVBL
DRYDEN         CLOUDY    63  59  88 W3        30.10R
KENORA         LGT RAIN  61  61 100 S6        30.07F
$$
                *** MANITOBA***

CITY           SKY/WX    TMP DP  RH WIND       PRES   REMARKS
BRANDON        PTCLDY    52  50  93 W12       30.14R
DAUPHIN        CLEAR     52  48  87 W9        30.12R
ISLAND LAKE    MOCLDY    64  63  94 SW8       29.92S
PILOT MOUND      N/A     57  55  94 NW10        N/A
THE PAS        PTCLDY    52  45  76 W15       30.02S
THOMPSON       MOCLDY    54  48  82 W10       29.88R
WINNIPEG       MOCLDY    63  61  94 N3        30.06R
LYNN LAKE      CLOUDY    50  48  93 MISG      29.80F FOG
CHURCHILL      LGT RAIN  50  48  93 E7        29.89F
GILLAM         CLOUDY    61  61 100 S6        29.83F
$$
                ***SASKATCHEWAN***

CITY           SKY/WX    TMP DP  RH WIND       PRES   REMARKS
ESTEVAN        CLEAR     46  43  87 NW10      30.22R
KINDERSLEY     CLEAR     41  39  93 S5        30.27R
LLOYDMINSTER   CLEAR     37  36  93 W8        30.24R
PRINCE ALBERT  CLEAR     45  41  87 W9        30.18R
REGINA         PTCLDY    39  39 100 W8        30.25R
YORKTON        CLOUDY    54  48  82 W10       30.18R   C1F1C2F2C3F3C4F4C5F5C6F6C7F7C8F8C9F9CaFaCbFbCcFcCdFdCe!



USA.gov is the U.S. government's official web portal to all federal, state and local government web resources and services.